Theta_e
318 319 321 320 319 318 319 320 319 319 318 317 316 316 316 316 315 315 317 318 319 319 321 322 325 324 335 360 357 355 354 353 354 354 353 353 352 352 348 347 351 349 348 344
319 320 319 318 318 319 320 320 320 318 318 318 318 319 316 316 316 315 317 318 320 320 320 323 326 327 335 361 358 356 355 353 354 354 353 354 350 351 347 352 351 348 346 343
318 318 317 318 318 320 320 320 320 319 319 319 318 320 320 316 318 318 316 318 320 321 322 325 328 328 327 361 359 355 354 354 354 353 353 353 347 347 349 349 348 345 345 344
318 318 318 318 319 318 319 318 319 321 320 320 320 324 320 319 319 319 319 317 318 320 323 325 328 331 331 360 359 356 356 354 355 352 356 353 349 349 351 348 348 346 347 348
318 318 318 318 318 318 320 319 320 322 322 323 324 321 321 319 321 321 320 318 318 319 322 324 327 328 343 360 359 358 357 356 356 355 352 350 349 350 349 350 350 349 347 346
319 318 318 318 318 318 318 318 319 322 323 329 321 321 322 320 321 319 321 319 318 318 320 322 325 327 354 360 359 359 357 355 354 351 352 350 351 350 351 349 346 344 341 341
322 320 319 319 321 320 322 323 330 330 330 327 319 320 321 320 320 320 320 319 319 318 319 321 323 328 348 357 357 356 355 353 351 352 352 350 348 348 348 344 341 340 337 337
325 325 319 319 319 323 324 325 325 326 329 324 319 327 323 321 321 321 319 319 321 319 318 320 323 327 357 358 356 355 352 352 346 352 350 348 348 347 345 340 340 340 334 334
325 321 317 316 315 315 321 325 321 324 322 327 321 319 322 320 320 319 318 319 320 321 319 320 323 326 355 356 355 354 352 351 350 352 349 348 347 345 341 341 338 335 333 332
319 320 316 315 315 316 318 318 327 324 324 323 320 321 318 319 320 320 321 320 320 321 320 320 322 327 354 355 354 353 352 351 351 350 348 349 344 341 341 337 334 333 332 330
317 316 318 315 316 317 320 323 323 321 322 325 323 318 318 320 319 319 320 321 319 320 320 319 322 344 355 354 354 353 353 353 350 349 349 345 341 340 337 336 334 332 329 327
315 315 320 317 316 316 317 322 321 325 319 321 322 324 318 319 318 317 319 321 320 319 320 320 339 347 345 353 351 351 352 350 348 348 342 340 338 336 336 333 331 328 326 324
313 317 321 319 321 322 322 320 322 323 323 328 326 323 318 317 317 317 318 319 321 320 322 334 347 343 336 336 337 348 348 346 344 341 338 336 335 334 332 330 327 325 323 322
313 315 317 321 319 319 321 323 321 321 323 325 324 321 318 318 317 317 317 319 321 323 345 348 338 334 328 332 333 343 342 341 340 337 335 334 332 331 329 327 325 323 321 320
314 318 317 317 318 320 321 322 321 322 322 328 324 320 318 317 320 319 318 320 322 338 336 339 334 332 328 324 332 338 338 337 335 333 332 331 330 328 326 324 322 320 319 318
315 319 316 318 318 322 327 319 316 317 317 317 321 324 320 319 320 321 320 321 325 337 336 340 335 333 326 323 336 336 334 333 332 330 329 328 326 324 322 320 319 318 318 317
316 317 319 321 320 323 324 313 313 313 312 313 317 317 314 316 319 321 322 324 329 338 336 335 335 332 330 332 334 334 331 330 329 328 327 324 322 321 319 318 318 318 317 316
315 318 320 322 323 327 315 310 310 310 310 313 313 310 309 312 316 321 323 328 334 335 334 332 331 330 330 330 330 329 328 327 326 325 323 322 320 319 318 318 317 316 315 314
315 317 322 325 326 322 312 310 308 309 309 308 307 306 311 322 323 327 333 332 332 331 329 329 328 327 327 327 328 326 325 324 323 322 320 319 318 317 317 316 315 315 314 313
315 317 320 321 326 328 309 307 308 308 311 307 304 306 320 326 333 331 331 329 328 327 325 325 325 324 324 325 325 324 323 322 320 319 318 317 316 316 315 315 314 313 311 310
317 314 318 318 321 316 306 306 306 313 312 301 304 308 324 328 329 330 329 329 327 326 325 324 324 322 322 322 322 321 320 320 319 317 317 316 315 315 314 314 313 312 311 309
319 316 316 314 320 317 306 305 305 302 300 305 307 313 323 326 326 327 327 328 328 328 327 326 324 323 322 321 320 320 319 318 316 316 315 314 314 313 313 312 312 311 310 310
317 314 313 311 314 306 304 301 302 301 304 305 308 311 320 324 324 324 325 325 325 326 326 325 324 322 322 321 319 318 316 315 315 314 313 312 312 311 312 312 311 312 311 310
311 310 311 311 307 304 304 303 301 300 305 305 306 308 316 320 321 321 321 321 321 321 321 321 320 321 320 318 317 316 315 314 313 313 312 312 311 310 309 305 304 305 307 309
311 309 308 308 308 303 305 302 300 300 305 304 305 305 308 315 316 317 317 318 318 318 318 318 318 319 319 318 316 315 314 313 312 312 310 307 303 300 300 299 298 298 301 304
307 307 307 307 302 300 300 298 299 304 304 303 304 304 303 310 312 312 313 313 314 315 316 316 316 316 316 315 315 314 313 311 310 310 308 305 302 299 296 294 292 295 296 297
Wind_Speed
17 15 15 21 18 21 21 23 25 24 24 20 18 19 20 23 18 20 20 24 26 28 24 29 27 31 19 29 37 43 42 42 38 33 28 24 25 18 20 17 26 24 17 15
16 20 22 23 22 22 23 25 26 26 23 23 21 28 22 17 21 20 23 22 19 24 27 24 25 23 18 27 31 29 36 37 33 30 28 27 26 20 21 24 22 19 15 16
21 24 23 22 21 20 22 24 24 25 24 27 24 27 25 22 22 24 20 23 22 21 22 18 17 26 26 28 28 31 35 35 34 36 32 27 29 24 22 25 20 19 16 14
21 21 23 23 24 21 25 22 21 24 22 18 18 19 21 23 20 21 26 22 23 23 19 19 14 14 26 32 31 33 35 38 36 38 26 23 23 22 24 22 19 18 17 15
25 25 26 27 27 24 26 23 16 17 20 17 25 13 23 17 24 25 20 22 23 24 18 15 18 17 29 37 36 37 36 37 36 38 30 30 26 20 26 25 23 19 16 15
26 26 24 24 27 26 25 24 21 15 13 15 20 16 23 21 25 21 26 23 27 25 22 20 20 26 30 39 37 35 37 38 37 36 31 31 35 31 26 25 24 21 19 18
21 22 25 11 21 25 14 14 4 9 9 16 13 17 20 23 23 30 20 22 28 27 26 25 24 18 25 35 34 34 34 39 36 32 33 32 36 34 28 28 27 24 22 25
11 11 10 9 10 5 7 8 6 6 4 8 18 7 13 22 25 23 19 25 22 29 27 26 22 20 26 34 36 34 37 37 33 31 27 31 32 31 29 30 27 21 26 24
7 7 26 29 18 15 4 7 3 6 11 14 18 23 14 22 18 19 19 8 22 23 27 27 24 23 36 36 36 39 40 42 45 30 32 31 31 32 32 27 24 26 27 25
4 14 16 21 18 18 14 9 5 4 6 16 13 17 12 12 9 13 18 15 19 12 26 24 25 22 39 38 38 40 41 43 41 38 36 34 37 37 32 30 28 25 25 24
10 7 13 17 9 16 4 5 8 8 8 7 13 10 6 7 8 2 19 20 16 15 16 25 22 16 36 41 42 45 45 42 39 37 34 37 38 33 32 30 30 28 27 24
5 4 8 20 27 22 18 15 15 6 9 12 13 13 12 7 8 5 16 18 14 17 20 21 15 16 18 32 39 45 46 42 41 36 38 39 36 34 32 31 31 29 26 23
5 4 7 12 0 6 6 11 16 10 8 18 13 11 7 4 9 11 13 16 18 18 21 14 15 17 15 16 13 24 45 41 41 42 42 39 36 35 35 32 30 29 26 23
7 4 9 14 22 20 20 14 16 18 10 18 18 21 20 18 12 16 13 17 19 18 16 18 17 20 22 19 19 20 32 44 41 43 40 38 39 36 34 32 30 28 24 23
3 7 15 22 24 25 26 25 23 21 21 18 18 21 15 14 11 15 14 17 15 14 15 19 21 22 20 15 20 20 30 38 42 43 39 39 38 38 35 32 30 28 25 23
3 5 16 24 25 17 19 4 10 10 16 14 17 21 11 13 13 22 20 13 15 16 18 19 20 20 28 13 29 28 32 36 43 42 41 40 39 37 35 33 30 27 26 25
2 4 5 9 19 24 2 7 11 11 15 9 10 17 16 18 20 21 15 13 9 20 22 22 23 23 25 36 29 30 37 39 40 41 39 40 38 36 34 31 29 27 27 26
2 9 4 9 17 9 5 9 10 10 18 8 11 18 21 24 23 21 16 9 18 18 23 23 20 16 28 31 33 36 38 38 37 39 39 37 36 36 32 30 29 28 26 25
9 8 4 5 11 4 7 14 12 6 18 3 13 20 20 13 9 12 10 18 18 20 19 20 35 31 30 29 35 38 37 36 38 36 37 36 35 35 32 30 28 26 25 24
16 9 6 9 8 5 7 24 24 7 5 16 28 26 20 5 9 6 19 21 21 23 22 25 40 41 36 28 35 38 36 36 36 37 38 36 35 34 32 29 27 25 25 25
11 9 8 9 6 3 17 22 24 6 9 26 22 23 10 5 7 21 23 22 20 25 29 38 40 41 34 34 39 37 37 35 38 41 40 37 34 33 31 28 24 25 26 26
5 7 6 7 5 5 18 10 7 10 15 16 20 16 9 10 20 22 22 21 23 24 28 37 34 34 33 37 40 38 36 39 42 42 40 36 32 29 28 27 25 23 23 25
4 3 5 3 5 7 10 8 9 13 16 13 14 16 8 15 19 22 20 21 21 25 23 35 34 36 33 35 39 42 40 42 42 39 36 33 31 28 24 22 19 16 20 23
6 3 4 7 3 15 9 14 15 14 10 12 15 15 11 14 17 20 19 19 20 21 25 33 34 32 35 39 40 42 42 40 39 36 33 30 28 24 20 20 21 20 16 21
2 10 9 8 4 15 2 16 16 17 10 12 14 15 14 16 17 19 17 18 18 22 30 33 30 31 35 39 39 39 39 39 36 33 31 27 29 31 34 31 27 31 27 25
2 3 4 4 11 3 11 14 15 9 11 12 12 16 19 17 16 19 17 18 22 25 31 31 30 31 34 37 38 36 34 33 34 31 28 27 25 27 30 32 35 30 28 26
Wind_Direction
261 235 240 256 265 277 274 273 277 281 288 278 260 256 267 276 242 258 243 235 236 226 240 237 236 225 215 160 165 165 166 160 160 163 170 168 167 190 170 173 163 161 175 181
262 251 256 261 249 260 276 279 276 278 280 278 272 281 257 256 283 248 272 246 254 215 225 226 219 212 200 163 164 167 153 169 163 166 173 173 171 181 165 147 148 159 170 179
278 282 291 283 268 255 253 259 271 277 282 279 278 264 263 253 256 258 242 265 265 228 216 225 212 195 208 163 168 167 166 172 173 171 183 176 163 172 149 147 147 158 168 168
282 293 284 273 271 272 276 267 273 295 269 265 266 273 264 271 263 244 248 241 255 267 208 215 219 204 184 168 172 170 174 173 178 174 185 175 163 162 144 145 152 152 159 150
280 284 280 275 274 280 277 290 274 283 272 277 257 265 271 247 250 252 255 225 242 252 251 228 224 213 177 167 174 177 176 171 176 177 176 172 159 149 144 136 136 144 146 152
285 275 268 265 260 256 267 264 264 256 269 260 255 248 263 256 256 249 242 219 222 232 240 241 240 211 174 170 174 173 172 176 177 177 178 170 149 135 130 128 131 138 129 135
296 297 286 300 297 252 337 283 267 231 216 248 270 249 246 260 251 249 228 240 212 211 221 227 237 223 182 168 172 170 169 173 175 183 167 163 154 144 138 137 142 133 134 128
280 303 1 1 21 348 304 268 226 283 248 293 287 259 282 265 245 261 251 227 214 200 206 219 224 226 161 168 170 165 167 160 168 181 147 149 144 136 135 143 146 147 138 133
313 273 327 306 300 277 248 236 300 285 276 272 261 266 238 271 270 250 252 242 257 198 197 209 214 222 165 166 167 164 165 162 170 153 142 141 139 133 134 144 135 129 136 133
285 289 285 291 292 270 246 255 216 196 258 264 256 273 256 231 210 343 321 215 252 257 194 201 213 215 161 164 167 167 171 165 162 149 151 144 131 134 140 133 129 131 129 130
302 225 281 302 247 263 228 218 211 252 244 269 286 287 23 349 32 310 298 310 222 243 263 196 209 181 162 165 166 173 167 156 146 148 139 127 128 133 129 126 130 126 123 123
261 277 277 286 281 271 272 232 231 227 247 240 256 271 279 300 301 301 288 289 284 229 241 200 176 139 151 166 168 173 161 143 144 134 124 123 126 129 127 125 123 121 121 122
195 236 299 297 296 45 273 240 230 243 258 257 261 261 303 231 288 269 267 284 279 230 239 176 142 145 119 114 189 173 136 130 130 128 126 128 131 125 122 122 121 117 119 120
161 235 231 266 282 303 291 264 262 243 252 263 248 268 265 267 273 267 245 263 269 281 144 126 119 111 80 51 22 139 117 129 129 123 126 126 123 123 120 118 117 116 114 111
236 262 274 274 270 271 273 279 273 257 246 254 272 255 256 281 324 293 257 257 286 127 134 125 132 131 114 91 183 106 120 126 122 121 123 119 121 118 118 115 113 113 112 108
223 273 296 290 285 272 265 24 1 348 318 306 300 285 326 344 308 287 262 274 273 162 140 125 130 138 132 206 122 143 128 122 120 122 120 123 119 116 113 112 111 111 107 103
241 291 297 281 310 308 89 50 5 310 294 288 272 294 320 290 262 254 251 246 223 148 132 122 109 127 140 153 143 135 123 124 121 121 122 117 115 114 113 112 111 107 102 99
239 287 265 288 303 307 76 9 343 297 290 307 273 288 281 267 266 254 255 239 139 153 129 128 113 113 121 122 125 124 122 118 122 116 116 117 116 113 113 111 108 106 105 101
209 274 275 278 311 276 29 337 326 324 297 261 306 295 294 247 218 273 187 138 146 128 121 127 119 120 117 117 121 124 121 124 117 119 117 117 115 112 112 110 108 107 105 100
341 307 262 299 301 303 352 335 326 314 259 335 333 328 317 343 115 124 117 123 121 119 118 119 118 112 110 125 133 124 126 124 121 117 113 113 112 110 110 112 111 113 109 104
334 346 325 323 298 90 5 347 322 19 318 317 316 313 45 115 102 102 106 101 109 111 117 118 120 113 130 137 128 122 121 117 116 112 108 106 108 110 113 114 113 110 106 106
326 335 345 328 306 334 9 347 17 295 301 318 314 327 49 91 91 91 98 107 108 113 116 111 110 120 137 131 122 116 108 108 107 103 105 108 108 108 108 107 108 119 124 122
348 25 312 294 316 353 353 314 314 314 311 323 324 340 41 87 91 95 95 103 97 96 101 109 118 124 124 114 112 107 108 108 107 106 108 108 110 111 112 118 125 130 135 129
329 46 285 325 62 346 316 337 341 332 339 335 1 3 26 73 85 95 90 92 95 98 105 110 113 112 106 108 105 105 108 109 109 110 111 112 112 114 112 90 90 84 80 111
338 315 325 276 345 324 335 342 335 330 7 10 24 22 31 71 75 87 93 93 97 101 106 106 106 106 105 108 106 108 112 114 115 115 116 104 96 93 92 82 73 74 70 85
4 330 320 310 332 286 297 324 325 8 26 23 37 37 39 60 75 82 86 90 95 96 100 99 103 105 103 102 107 111 116 118 119 121 112 111 105 96 93 90 82 79 83 88